Regional Weather Roundup
Issued by NWS

Home | Current Version | Previous Version | Text Only | Print | Product List | Glossary Off
Versions: 1 2 3 4 5 6 7 8 9 10 11 12 13 14 15 16 17 18 19 20 21 22 23 24 25 26 27 28 29 30 31 32 33 34 35 36 37 38 39 40 41 42 43 44 45 46 47 48 49 50

000
ASUS45 KTFX 011904
RWRMT
MONTANA REGIONAL WEATHER ROUNDUP
NATIONAL WEATHER SERVICE GREAT FALLS MT
100 PM MDT TUE SEP 01 2015

NOTE: "FAIR" INDICATES FEW OR NO CLOUDS BELOW 12000 FEET WITH NO
SIGNIFICANT WEATHER AND/OR OBSTRUCTIONS TO VISIBILITY.

MTZ001>007-043-012000-
WEST OF THE DIVIDE

CITY           SKY/WX    TMP DP  RH WIND       PRES   REMARKS
KALISPELL      CLEAR     74  38  27 W12G21    29.87F
MISSOULA       MOSUNNY   70  42  36 CALM      29.90F
BUTTE          SUNNY     74  27  17 W10G20    29.99F
MULLAN PASS    MOSUNNY   55  40  56 VRB6      30.00F
DEER LODGE       N/A     72  39  30 CALM      29.97F
EUREKA           N/A     72  39  30 S12G20    29.87F
HAMILTON         N/A     70  48  46 N7        29.89F
LIBBY            N/A     70  41  35 SE6       29.88F
$$

MTZ008-052>055-012000-
SOUTHWEST MONTANA

CITY           SKY/WX    TMP DP  RH WIND       PRES   REMARKS
BOZEMAN        SUNNY     78  36  21 VRB7      29.93F
DILLON         SUNNY     79  31  17 SW13G29   29.96F
W YELLOWSTONE  SUNNY     72  27  18 W8G17     30.09F
$$

MTZ009-010-012-014-046-048-049-054-012000-
EAST SLOPES AND CENTRAL MONTANA

CITY           SKY/WX    TMP DP  RH WIND       PRES   REMARKS
CUT BANK       CLOUDY    74  26  16 SW28G40   29.80F
GREAT FALLS    PTSUNNY   78  36  21 SW23      29.84F
MALMSTROM AFB  PTSUNNY   77  36  22 SW21G32   29.84F
HELENA         SUNNY     78  38  23 E8        29.90F
$$

MTZ011-013-016-021-045-047-050-051-012000-
NORTH CENTRAL MONTANA

CITY           SKY/WX    TMP DP  RH WIND       PRES   REMARKS
HAVRE          MOSUNNY   82  29  14 SW23G29   29.75F
LEWISTOWN      SUNNY     80  34  19 W8        29.88F
N BAR RANCH      N/A     79  39  24 NW6       29.91F
CHINOOK          N/A     81  32  17 SW17G23   29.75F
FORT BENTON      N/A     81  28  15 SW16G29   29.80F
$$

MTZ017>020-022>027-061-062-012000-
NORTHEAST MONTANA

CITY           SKY/WX    TMP DP  RH WIND       PRES   REMARKS
GLASGOW        SUNNY     84  41  21 W14G20    29.76F
JORDAN           N/A     85  37  18 W10       29.80F
SIDNEY         SUNNY     88  54  31 S10       29.76F
WOLF POINT     SUNNY     85  48  27 W13       29.77S
PLENTYWOOD       N/A     84  48  28 S15G21    29.76F
POPLAR           N/A     88  48  25 W13G21    29.75F
$$

MTZ028>42-056>058-012000-
SOUTHCENTRAL AND SOUTHEAST MONTANA

CITY           SKY/WX    TMP DP  RH WIND       PRES   REMARKS
BAKER          SUNNY     88  49  25 S7        29.84F
BILLINGS       MOSUNNY   85  30  13 S6        29.86F
LIVINGSTON     SUNNY     85  31  14 NW9       29.90F
MILES CITY     SUNNY     88  41  19 NW14      29.80F
FORSYTH          N/A     84  36  17 W8G17     29.82S
$$

REGIONAL REPORTS...DAKOTAS

CITY           SKY/WX    TMP DP  RH WIND       PRES   REMARKS
WILLISTON      SUNNY     87  54  32 S9        29.77F
MINOT          SUNNY     85  54  34 S12       29.79F
DICKINSON      SUNNY     86  57  37 S9        29.81F
BISMARCK       SUNNY     85  59  41 SE12      29.83F
GRAND FORKS    MOSUNNY   85  55  35 S13G18    29.84S
FARGO          SUNNY     87  54  32 S12       29.86S
BUFFALO SD       N/A     83  60  45 SE7       29.79F
RAPID CITY     SUNNY     80  60  50 CALM      29.86F
$$

REGIONAL REPORTS...WYOMING/IDAHO/WASHINGTON

CITY           SKY/WX    TMP DP  RH WIND       PRES   REMARKS
GILLETTE       SUNNY     86  29  12 W7        29.92F
SHERIDAN       SUNNY     91  26   9 N3        29.88F
BUFFALO WY     SUNNY     86  29  12 E8        29.96F
CODY           SUNNY     82  30  15 SE3       29.94F
YELLOWSTONE LA   N/A     71  23  16 W9G21     30.19F
IDAHO FALLS    SUNNY     80  33  18 S9        30.00F
SALMON         SUNNY     73  39  29 N7        29.89F
BOISE          SUNNY     80  39  23 CALM      29.90F
SPOKANE        PTSUNNY   66  44  45 S12       29.89F
$$

REGIONAL REPORTS...ALBERTA

CITY           SKY/WX    TMP DP  RH WIND       PRES   REMARKS
$$

REGIONAL REPORTS...SASKATCHEWAN

CITY           SKY/WX    TMP DP  RH WIND       PRES   REMARKS
$$


USA.gov is the U.S. government's official web portal to all federal, state and local government web resources and services.